Regional Weather Roundup
Issued by NWS

Home | Current Version | Previous Version | Graphics & Text | Print | Product List | Glossary On
Versions: 1 2 3 4 5 6 7 8 9 10 11 12 13 14 15 16 17 18 19 20 21 22 23 24 25 26 27 28 29 30 31 32 33 34 35 36 37 38 39 40 41 42 43 44 45 46 47 48 49 50
000
ASUS43 KFSD 252010
RWRSD

WEATHER ROUNDUP FOR SOUTH DAKOTA
NATIONAL WEATHER SERVICE SIOUX FALLS SD
300 PM CDT SAT APR 25 2015

NOTE: "FAIR" INDICATES FEW OR NO CLOUDS BELOW 12,000 FEET WITH NO
SIGNIFICANT WEATHER AND/OR OBSTRUCTIONS TO VISIBILITY.


SDZ001>005-009-010-012>017-252100-
NORTHWEST AND NORTH CENTRAL SOUTH DAKOTA

CITY           SKY/WX    TMP DP  RH WIND       PRES   REMARKS
BUFFALO          N/A     49  44  83 SE18      29.66S
FAITH            N/A     48  43  82 SE12      29.75S
MOBRIDGE       CLOUDY    52  44  74 SE10      29.77R
$$

SDZ012>016-024>037-041>051-057-063-072>074-252100-
SOUTHWEST AND SOUTH CENTRAL SOUTH DAKOTA

CITY           SKY/WX    TMP DP  RH WIND       PRES   REMARKS
RAPID CTY ARPT CLOUDY    51  46  83 SE13      29.70F
PIERRE         CLOUDY    53  48  83 SE12      29.76S
CUSTER         CLOUDY    55  43  63 VRB7      29.71S
ELLSWORTH AFB  CLOUDY    51  47  84 SE15      29.70
PHILIP         CLOUDY    53  48  83 E12       29.74S
PINE RIDGE     MOSUNNY   60  47  61 SE9       29.70F
SPEARFISH      FAIR      52  48  87 E14       29.69S
WINNER         CLOUDY    57  47  69 SE14      29.75S
$$

SDZ004>011-016>023-039-040-252100-
NORTHEAST SOUTH DAKOTA

CITY           SKY/WX    TMP DP  RH WIND       PRES   REMARKS
ABERDEEN       CLOUDY    47  43  86 E13       29.84R FOG
WATERTOWN      CLOUDY    49  41  74 E14       29.83R
BROOKINGS      CLOUDY    54  43  66 E14       29.81R
SISSETON         N/A     47  42  83 E9        29.86S
$$

SDZ017-020-022-023-036>040-048>070-252100-
SOUTHEAST SOUTH DAKOTA

CITY           SKY/WX    TMP DP  RH WIND       PRES   REMARKS
SIOUX FALLS    CLOUDY    59  43  55 E17G24    29.78R
HURON          CLOUDY    62  45  53 SE13G20   29.78S
CHAMBERLAIN    PTSUNNY   55  45  69 SE9       29.77R
MITCHELL       CLOUDY    57  48  72 E10       29.78S
YANKTON        PTSUNNY   61  43  51 E12G25    29.75R
$$

ABBREVIATIONS USED IN REMARKS
   TC - TEMPERATURE IN CELSIUS
  WCI - WIND CHILL INDEX
   HX - HEAT INDEX
  VSB - VISIBILITY




USA.gov is the U.S. government's official web portal to all federal, state and local government web resources and services.